TimeMDT,TemperatureF,Dew PointF,Humidity,Sea Level PressureIn,VisibilityMPH,Wind Direction,Wind SpeedMPH,Gust SpeedMPH,PrecipitationIn,Events,Conditions,WindDirDegrees,DateUTC
12:15 AM,42.1,34.7,75,30.15,10.0,WSW,8.1,-,N/A,,Clear,250,2012-10-15 06:15:00
12:35 AM,42.3,34.9,75,30.15,10.0,West,9.2,-,N/A,,Clear,260,2012-10-15 06:35:00
12:55 AM,42.3,34.7,75,30.14,10.0,West,6.9,-,N/A,,Clear,270,2012-10-15 06:55:00
1:15 AM,42.3,34.7,75,30.14,10.0,West,6.9,-,N/A,,Clear,270,2012-10-15 07:15:00
1:35 AM,40.6,33.8,77,30.14,10.0,West,6.9,-,N/A,,Clear,270,2012-10-15 07:35:00
1:55 AM,42.1,34.2,74,30.14,10.0,West,6.9,-,N/A,,Clear,270,2012-10-15 07:55:00
2:15 AM,42.4,34.2,72,30.13,10.0,West,5.8,-,N/A,,Clear,260,2012-10-15 08:15:00
2:35 AM,40.1,33.4,77,30.12,10.0,WSW,6.9,-,N/A,,Clear,240,2012-10-15 08:35:00
2:55 AM,39.0,33.8,82,30.11,10.0,WSW,5.8,-,N/A,,Clear,250,2012-10-15 08:55:00
3:15 AM,37.9,33.6,84,30.10,10.0,WSW,8.1,-,N/A,,Clear,250,2012-10-15 09:15:00
3:35 AM,37.0,33.6,87,30.10,10.0,WSW,9.2,-,N/A,,Clear,250,2012-10-15 09:35:00
3:55 AM,37.0,34.0,89,30.09,10.0,WSW,8.1,-,N/A,,Clear,240,2012-10-15 09:55:00
4:15 AM,36.1,33.3,89,30.09,10.0,WSW,8.1,-,N/A,,Clear,250,2012-10-15 10:15:00
4:35 AM,35.6,33.1,91,30.09,10.0,West,9.2,-,N/A,,Clear,260,2012-10-15 10:35:00
4:55 AM,36.9,34.7,92,30.09,10.0,West,8.1,-,N/A,,Clear,270,2012-10-15 10:55:00
5:15 AM,37.9,35.1,89,30.08,10.0,West,8.1,-,N/A,,Clear,270,2012-10-15 11:15:00
5:35 AM,38.8,35.1,86,30.08,10.0,West,5.8,-,N/A,,Clear,270,2012-10-15 11:35:00
6:35 AM,34.9,33.1,93,30.06,10.0,WSW,9.2,-,N/A,,Clear,250,2012-10-15 12:35:00
6:55 AM,34.2,32.7,94,30.06,10.0,West,11.5,-,N/A,,Clear,260,2012-10-15 12:55:00
7:35 AM,36.1,34.5,94,30.06,10.0,WSW,8.1,-,N/A,,Clear,250,2012-10-15 13:35:00
7:55 AM,38.5,36.0,91,30.06,10.0,WSW,4.6,-,N/A,,Clear,250,2012-10-15 13:55:00
8:15 AM,41.0,37.4,87,30.06,10.0,WSW,3.5,-,N/A,,Clear,240,2012-10-15 14:15:00
8:55 AM,43.7,38.3,81,30.07,10.0,WSW,9.2,-,N/A,,Clear,250,2012-10-15 14:55:00
9:15 AM,48.6,38.8,69,30.07,10.0,WSW,8.1,-,N/A,,Clear,250,2012-10-15 15:15:00
9:35 AM,51.6,37.6,59,30.06,10.0,WSW,8.1,-,N/A,,Clear,240,2012-10-15 15:35:00
9:55 AM,54.3,36.7,51,30.06,10.0,West,5.8,-,N/A,,Clear,260,2012-10-15 15:55:00
10:35 AM,59.0,36.1,42,30.04,10.0,WSW,8.1,-,N/A,,Clear,240,2012-10-15 16:35:00
10:55 AM,61.0,35.8,39,30.04,10.0,WSW,8.1,-,N/A,,Clear,250,2012-10-15 16:55:00
11:15 AM,63.5,34.2,33,30.03,10.0,SW,6.9,-,N/A,,Clear,230,2012-10-15 17:15:00
11:35 AM,65.8,33.3,30,30.02,10.0,WSW,4.6,-,N/A,,Clear,250,2012-10-15 17:35:00
12:15 PM,70.2,32.5,25,30.00,10.0,SSW,4.6,-,N/A,,Clear,200,2012-10-15 18:15:00
12:35 PM,72.5,32.0,23,29.99,10.0,SSW,6.9,-,N/A,,Clear,210,2012-10-15 18:35:00
12:55 PM,73.0,32.0,22,29.98,10.0,SSW,6.9,-,N/A,,Clear,210,2012-10-15 18:55:00
1:15 PM,73.9,31.1,21,29.97,10.0,South,4.6,-,N/A,,Clear,190,2012-10-15 19:15:00
1:35 PM,75.2,30.7,20,29.96,10.0,WSW,4.6,-,N/A,,Clear,240,2012-10-15 19:35:00
1:55 PM,76.1,29.1,18,29.94,10.0,SSW,4.6,-,N/A,,Clear,200,2012-10-15 19:55:00
2:15 PM,76.3,28.2,17,29.93,10.0,Calm,Calm,-,N/A,,Clear,0,2012-10-15 20:15:00
2:35 PM,77.5,26.1,15,29.93,10.0,West,3.5,-,N/A,,Clear,260,2012-10-15 20:35:00
2:55 PM,77.5,25.0,14,29.91,10.0,Calm,Calm,-,N/A,,Clear,0,2012-10-15 20:55:00
3:15 PM,77.9,24.3,14,29.91,10.0,SW,4.6,-,N/A,,Clear,220,2012-10-15 21:15:00
3:35 PM,78.3,25.0,14,29.91,10.0,SSW,4.6,-,N/A,,Clear,210,2012-10-15 21:35:00
3:55 PM,78.4,26.6,15,29.91,10.0,SSW,4.6,-,N/A,,Clear,200,2012-10-15 21:55:00
4:15 PM,78.3,24.8,14,29.90,10.0,SW,8.1,-,N/A,,Clear,230,2012-10-15 22:15:00
4:35 PM,78.3,24.8,14,29.89,10.0,SSW,5.8,-,N/A,,Clear,200,2012-10-15 22:35:00
5:15 PM,75.9,23.2,14,29.89,10.0,SW,5.8,-,N/A,,Clear,230,2012-10-15 23:15:00
5:35 PM,73.9,24.3,16,29.88,10.0,SW,4.6,-,N/A,,Clear,220,2012-10-15 23:35:00
5:55 PM,70.0,24.8,18,29.87,10.0,WSW,4.6,-,N/A,,Clear,240,2012-10-15 23:55:00
6:15 PM,67.5,24.6,20,29.87,10.0,WSW,3.5,-,N/A,,Clear,240,2012-10-16 00:15:00
6:35 PM,66.4,24.3,20,29.87,10.0,Calm,Calm,-,N/A,,Clear,0,2012-10-16 00:35:00
6:55 PM,66.2,24.1,20,29.87,10.0,Calm,Calm,-,N/A,,Clear,0,2012-10-16 00:55:00
7:15 PM,66.4,24.6,21,29.88,10.0,Calm,Calm,-,N/A,,Clear,0,2012-10-16 01:15:00
7:35 PM,67.1,23.9,20,29.88,10.0,Calm,Calm,-,N/A,,Clear,0,2012-10-16 01:35:00
7:55 PM,66.2,24.6,21,29.88,10.0,Calm,Calm,-,N/A,,Clear,0,2012-10-16 01:55:00
8:15 PM,64.6,25.3,23,29.89,10.0,Calm,Calm,-,N/A,,Clear,0,2012-10-16 02:15:00
8:35 PM,65.1,25.0,22,29.89,10.0,West,3.5,-,N/A,,Clear,270,2012-10-16 02:35:00
8:55 PM,62.4,25.9,25,29.90,10.0,WNW,4.6,-,N/A,,Clear,290,2012-10-16 02:55:00
9:15 PM,59.0,26.2,29,29.89,10.0,West,6.9,-,N/A,,Clear,280,2012-10-16 03:15:00
9:35 PM,57.7,27.1,31,29.90,10.0,West,6.9,-,N/A,,Clear,280,2012-10-16 03:35:00
9:55 PM,57.9,28.2,32,29.91,10.0,WNW,9.2,-,N/A,,Clear,300,2012-10-16 03:55:00
10:15 PM,60.4,28.2,29,29.91,10.0,NW,11.5,-,N/A,,Clear,320,2012-10-16 04:15:00
10:35 PM,63.5,27.0,25,29.90,10.0,NW,11.5,-,N/A,,Clear,320,2012-10-16 04:35:00
10:55 PM,62.1,26.4,26,29.89,10.0,NNW,15.0,-,N/A,,Clear,330,2012-10-16 04:55:00
11:15 PM,61.7,25.0,25,29.89,10.0,NNW,13.8,-,N/A,,Clear,330,2012-10-16 05:15:00
11:35 PM,61.7,24.8,24,29.89,10.0,NNW,17.3,-,N/A,,Clear,330,2012-10-16 05:35:00
11:55 PM,59.7,25.0,26,29.89,10.0,NNW,13.8,-,N/A,,Clear,330,2012-10-16 05:55:00